Regional Weather Roundup
Issued by NWS

Home | Current Version | Previous Version | Text Only | Print | Product List | Glossary Off
Versions: 1 2 3 4 5 6 7 8 9 10 11 12 13 14 15 16 17 18 19 20 21 22 23 24 25 26 27 28 29 30 31 32 33 34 35 36 37 38 39 40 41 42 43 44 45 46 47 48 49 50

000
ASUS43 KLOT 060521
RWRIL

ILLINOIS REGIONAL WEATHER ROUNDUP
NATIONAL WEATHER SERVICE CHICAGO/ROMEOVILLE IL
1200 AM CDT MON JUL 06 2015

NOTE: "FAIR" INDICATES FEW OR NO CLOUDS BELOW 12,000 FEET WITH NO
SIGNIFICANT WEATHER AND/OR OBSTRUCTIONS TO VISIBILITY.

* THESE STATIONS ARE NOT UNDER NWS QUALITY CONTROL. THEY ALSO MAY NOT
  REPORT WEATHER SUCH AS PRECIPITATION OR FOG.

ILZ001-002-007-009-015-016-024-060600-
NORTHWEST ILLINOIS

CITY           SKY/WX    TMP DP  RH WIND       PRES   REMARKS
MOLINE         CLEAR     71  65  81 SE9       29.95S
STERLING*      CLEAR     68  64  88 SE5       29.98S
SAVANNA*       CLEAR     68  64  86 CALM      29.97R
$$

ILZ003-004-008-010-011-017-018-060600-
NORTH CENTRAL ILLINOIS

CITY           SKY/WX    TMP DP  RH WIND       PRES   REMARKS
ROCKFORD       PTCLDY    69  62  78 S7        29.99F
FREEPORT*      CLEAR     66  63  89 S6        29.99S
ROCHELLE*      CLEAR     65  63  93 S6        29.99F
DE KALB*       CLEAR     64  60  90 S8        30.01F
PERU*          CLEAR     71  64  78 S8        30.00F
$$

ILZ005-006-012>014-019>023-060600-
NORTHEAST ILLINOIS

CITY           SKY/WX    TMP DP  RH WIND       PRES   REMARKS
CHICAGO-OHARE  CLEAR     69  61  75 S7        30.00S
CHICAGO-MIDWAY CLEAR     75  62  64 S6        30.00F
AURORA         CLEAR     68  61  78 S5        30.00F
LANSING*       CLEAR     68  60  74 S5        30.01F
JOLIET*        CLEAR     66  65  96 CALM      30.01F FOG
WAUKEGAN       CLEAR     62  60  93 CALM      29.99F
DUPAGE AIRPORT CLEAR     67  61  81 S3        30.00F
KANKAKEE*      CLEAR     70  65  83 S7        30.02F
WHEELING       CLEAR     69  60  73 CALM      30.01S
MORRIS*        CLEAR     68  64  85 S5        29.98F
ROMEOVILLE*    CLEAR     67  62  83 S6        30.01F
NORTHERLY ISL    N/A     72  61  68 S3          N/A
$$

LMZ740>746-060600-
SOUTHERN LAKE MICHIGAN

STATION/POSITION SKY/WX   TEMP    WIND        PRES    VSBY  WAVE
                          AIR SEA DIR/SP/G                  HT/PER
                          (F)     (DEG/KT/KT) (MB)    (MI)  (FT/S)
HARRISON CRIB              71     180/ 10/ 11   N/A
BURNHAM HARBOR             73     190/  5/  7   N/A
CALUMET HARBOR             73     180/  3/  6   N/A
BURNS HARBOR               75     180/  5/  8 1017.3F
MICHIGAN CITY              73     140/  8/ 10   N/A
MICHIGAN CITY 6N           69 67  180/  6/  8   N/A           0
ST. JOSEPH                 69 68                N/A           0
$$

ILZ025>027-034>036-040-047-049-050-058-095>099-060600-
WEST-CENTRAL ILLINOIS

CITY           SKY/WX    TMP DP  RH WIND       PRES   REMARKS
QUINCY         CLEAR     73  68  84 S9        29.96F HAZE
GALESBURG*     CLEAR     70  66  86 SE5       29.97F
MACOMB*        CLEAR     70  68  94 SE5       30.00R FOG
JACKSONVILLE*  CLEAR     74  68  80 SE8       29.98F
PITTSFIELD*    CLEAR     71  68  89 SE5       29.99F FOG
$$

ILZ028>032-037-038-041>044-048-051>054-059>061-060600-
CENTRAL ILLINOIS

CITY           SKY/WX    TMP DP  RH WIND       PRES   REMARKS
PONTIAC        CLEAR     67  65  96 SE3       30.02F FOG
BLOOMINGTON    CLEAR     69  66  90 S7        30.03F
DECATUR        CLEAR     69  64  84 S6        30.02F
PEORIA         CLEAR     74  65  73 S7        29.99F
LACON*         CLEAR     68  64  85 S5        29.98F
LINCOLN*       CLEAR     69  65  84 CALM      30.01F
SPRINGFIELD    CLEAR     75  65  70 S10       30.00F
TAYLORVILLE    CLEAR     68  64  88 S7        30.02S
$$

ILZ033-039-045-046-055>057-062-063-060600-
EAST-CENTRAL ILLINOIS

CITY           SKY/WX    TMP DP  RH WIND       PRES   REMARKS
CHAMPAIGN      CLEAR     68  65  90 SE6       30.03F FOG
DANVILLE*      CLEAR     68  65  93 SE5       30.02F FOG
RANTOUL*       CLEAR     69  67  92 SE5       30.03F FOG
MATTOON        CLEAR     69  66  90 S5        30.03F
PARIS*         CLEAR     69  67  95 SE3       30.05F FOG
$$

ILZ079-100>102-060600-
SOUTHWEST ILLINOIS

CITY           SKY/WX    TMP DP  RH WIND       PRES   REMARKS
ALTON          CLEAR     73  73 100 SE5       30.01F
BELLEVILLE     CLEAR     72  70  94 SE3       30.00F
CAHOKIA*       PTCLDY    74  68  81 SE7       30.00F HAZE
SPARTA*        CLEAR     74  66  78 S3        30.04S
$$

ILZ064>066-069>071-074>076-080>082-084>086-088>090-092>094-060600-
SOUTH-CENTRAL ILLINOIS

CITY           SKY/WX    TMP DP  RH WIND       PRES   REMARKS
CARBONDALE     CLEAR     71  68  90 CALM      30.03F FOG
CAIRO*         PTCLDY    75  71  87 S5        30.04F
EFFINGHAM*     CLEAR     69  66  90 CALM      30.05F FOG
MARION         CLEAR     72  70  94 CALM      30.04F FOG
MT. VERNON     CLEAR     66  63  88 CALM      30.04F
CENTRALIA*     PTCLDY    69  65  86 S3        30.03F
SALEM*         CLEAR     72  66  82 CALM      30.03F
$$

ILZ067-068-072-073-078-083-087-091-060600-
SOUTHEAST ILLINOIS

CITY           SKY/WX    TMP DP  RH WIND       PRES   REMARKS
LAWRENCEVILLE  CLEAR     71  68  90 E5        30.05F
FLORA*         CLEAR     69  68  97 CALM      30.04F FOG
FAIRFIELD*     CLEAR     70  69  98 CALM      30.03F FOG
HARRISBURG*    CLEAR     68  68 100 CALM      30.05F FOG
ROBINSON*      CLEAR     71  69  92 SE3       30.06S
CARMI*         CLEAR     71  65  82 CALM      30.03F HAZE
$$

ABBREVIATIONS USED IN REMARKS
   TC - TEMPERATURE IN CELSIUS
  WCI - WIND CHILL INDEX
   HX - HEAT INDEX
  VSB - VISIBILITY
$$




USA.gov is the U.S. government's official web portal to all federal, state and local government web resources and services.